Weather History for KHUT - November, 2011

Change the Weather History Date:

Wednesday, November 23, 2011

  Actual Average Record
Temperature  
Mean Temperature 48 °F -  
Max Temperature 66 °F 50 °F 73 °F (2005)
Min Temperature 30 °F 27 °F 10 °F (2007)
Degree Days  
Heating Degree Days 17    
Moisture  
Dew Point 34 °F    
Average Humidity 69    
Maximum Humidity 96    
Minimum Humidity 30    
Precipitation  
Precipitation 0.00 in - - ()
Sea Level Pressure  
Sea Level Pressure 30.18 in    
Wind  
Wind Speed 4 mph (SSW)    
Max Wind Speed 9 mph    
Max Gust Speed -    
Visibility 10 miles    
Events      
Averages and records for this station are not official NWS values.
T = Trace of Precipitation, MM = Missing Value Source: NWS Daily Summary

Daily Weather History Graph

Daily Weather History Graph

Search for Another Location

Airport or City:

Trip Planner

Search our weather history database for the weather conditions in past years. The results will help you decide how hot, cold, wet, or windy it might be!

Date:

Astronomy

Nov. 23, 2011 Rise Set
Actual Time 7:20 AM CST 5:14 PM CST
Civil Twilight 6:51 AM CST 5:43 PM CST
Nautical Twilight 6:19 AM CST 6:15 PM CST
Astronomical Twilight 5:48 AM CST 6:47 PM CST
Moon 5:27 AM CST (11/23) 3:57 PM CST (11/23)
Length of Visible Light 10h 51m
Length of Day
9h 54m
Waning Crescent, 3% of the Moon is Illuminated
Nov 23
Waning Crescent
Nov 25
New
Dec 2
First Quarter
Dec 10
Full
Dec 17
Last Quarter

Hourly Weather History & Observations

Time (CST) Temp. Windchill Dew Point Humidity Pressure Visibility Wind Dir Wind Speed Gust Speed Precip Events Conditions
12:52 AM 32.0 °F - 30.9 °F 96% 30.18 in 6.0 mi Calm Calm - N/A   Clear
1:52 AM 30.0 °F 26.5 °F 28.9 °F 96% 30.18 in 7.0 mi WNW 3.5 mph - N/A   Clear
2:52 AM 32.0 °F 27.5 °F 28.9 °F 88% 30.18 in 10.0 mi NW 4.6 mph - N/A   Clear
3:52 AM 30.9 °F 25.2 °F 27.0 °F 85% 30.18 in 10.0 mi WNW 5.8 mph - N/A   Clear
4:52 AM 33.1 °F - 28.0 °F 82% 30.19 in 10.0 mi Calm Calm - N/A   Clear
5:52 AM 30.0 °F 25.2 °F 26.1 °F 85% 30.22 in 10.0 mi WNW 4.6 mph - N/A   Clear
6:52 AM 30.0 °F - 25.0 °F 82% 30.22 in 10.0 mi Calm Calm - N/A   Clear
7:52 AM 30.9 °F - 26.1 °F 82% 30.24 in 10.0 mi Calm Calm - N/A   Clear
8:52 AM 43.0 °F 38.8 °F 34.0 °F 71% 30.22 in 10.0 mi SSW 6.9 mph - N/A   Clear
9:52 AM 48.9 °F - 34.0 °F 56% 30.22 in 10.0 mi SW 5.8 mph - N/A   Clear
10:52 AM 53.1 °F - 35.1 °F 50% 30.22 in 10.0 mi WSW 6.9 mph - N/A   Clear
11:52 AM 57.9 °F - 37.9 °F 47% 30.20 in 10.0 mi SW 9.2 mph - N/A   Clear
12:52 PM 62.1 °F - 37.0 °F 39% 30.17 in 10.0 mi SW 6.9 mph - N/A   Clear
1:52 PM 64.4 °F - 35.6 °F 34% 30.16 in 10.0 mi WSW 6.9 mph - N/A   Clear
2:52 PM 66.9 °F - 34.0 °F 30% 30.13 in 10.0 mi WSW 6.9 mph - N/A   Clear
3:52 PM 66.9 °F - 34.0 °F 30% 30.13 in 10.0 mi SW 4.6 mph - N/A   Clear
4:52 PM 60.1 °F - 37.9 °F 44% 30.14 in 10.0 mi South 5.8 mph - N/A   Clear
5:52 PM 55.0 °F - 37.0 °F 51% 30.15 in 10.0 mi South 4.6 mph - N/A   Clear
6:52 PM 48.0 °F - 39.0 °F 71% 30.17 in 10.0 mi SE 3.5 mph - N/A   Clear
7:52 PM 44.1 °F 41.5 °F 39.0 °F 82% 30.17 in 10.0 mi SE 4.6 mph - N/A   Clear
8:52 PM 43.0 °F 40.3 °F 39.9 °F 89% 30.17 in 10.0 mi SE 4.6 mph - N/A   Clear
9:52 PM 39.0 °F 36.8 °F 36.0 °F 89% 30.16 in 10.0 mi SE 3.5 mph - N/A   Clear
10:52 PM 41.0 °F 37.1 °F 37.9 °F 89% 30.15 in 10.0 mi SE 5.8 mph - N/A   Clear
11:52 PM 39.0 °F 36.8 °F 37.0 °F 93% 30.14 in 10.0 mi SSE 3.5 mph - N/A   Clear